User: anonymous   Login
Location: Plymouth
(43.7570°N, 71.6890°W)
Time: 16:06:19
(UTC-04:00)
Language:

COSMOS 2406 - Orbit

View from above orbital plane
View from above orbital plane
View from above satellite
View from above satellite

Ground track
Ground track

The orbit data is extracted from the following two-line orbital elements,

1 28352U 04021A   16148.59854842 -.00000313  00000-0 -14650-3 0  9990
2 28352  71.0024 209.7163 0015219 315.9979  43.9929 14.11443950616433
Epoch (UTC): 27 May 2016 14:21:54
Eccentricity: 0.0015219
inclination: 71.0024°
perigee height: 843 km
apogee height: 865 km
right ascension of ascending node: 209.7163°
argument of perigee: 315.9979°
revolutions per day: 14.11443950
mean anomaly at epoch: 43.9929°
orbit number at epoch: 61643

The dashed part of the orbit path shows where the satellite is in the earth's shadow,  

DLR